Location: Campillo
(40.8621°N, 4.2488°W)
Time: 12:52:27
(UTC+00:00)

Cosmos 2154 Rocket - Pass Details

Date: 03 October 2021
Orbit: 965 x 997 km, 82.9° (Epoch: 15 October)

Event Time Altitude Azimuth Distance (km) Brightness Sun altitude
Rises 05:40:18 0° 352° (N) 3,694 7.0 -7.5°
Reaches altitude 10° 05:42:50 10° 352° (N) 2,737 6.3 -7.0°
Maximum altitude 05:49:07 86° 266° (W) 981 4.0 -5.9°
Drops below altitude 10° 05:55:19 10° 176° (S) 2,701 6.4 -4.7°
Sets 05:57:48 0° 176° (S) 3,641 7.1 -4.2°
